Time,TemperatureF,DewpointF,PressureIn,WindDirection,WindDirectionDegrees,WindSpeedMPH,WindSpeedGustMPH,Humidity,HourlyPrecipIn,Conditions,Clouds,dailyrainin,SoftwareType,DateUTC
2013-02-27 00:00:00,41.5,34.9,29.80,ENE,66,6.3,6.3,77,0.20,,---,0.00,VWS V14.01,2013-02-27 05:00:00,
2013-02-27 00:05:00,41.5,34.9,29.80,ENE,58,8.7,8.7,77,0.24,,---,0.04,VWS V14.01,2013-02-27 05:05:00,
2013-02-27 00:10:00,41.7,35.0,29.80,North,11,8.1,8.1,77,0.24,,---,0.04,VWS V14.01,2013-02-27 05:10:00,
2013-02-27 00:15:00,41.7,35.4,29.80,East,79,17.4,17.4,78,0.20,,---,0.04,VWS V14.01,2013-02-27 05:15:00,
2013-02-27 00:20:00,41.7,35.4,29.80,ENE,66,8.3,8.3,78,0.20,,---,0.04,VWS V14.01,2013-02-27 05:20:00,
2013-02-27 00:25:00,41.9,35.5,29.80,East,97,11.0,11.0,78,0.20,,---,0.04,VWS V14.01,2013-02-27 05:25:00,
2013-02-27 00:30:00,42.1,35.7,29.80,NNE,32,12.3,12.3,78,0.20,,---,0.04,VWS V14.01,2013-02-27 05:30:00,
2013-02-27 00:35:00,42.1,35.7,29.80,ENE,71,15.4,15.4,78,0.20,,---,0.04,VWS V14.01,2013-02-27 05:35:00,
2013-02-27 00:40:00,42.3,35.9,29.80,NE,49,8.7,8.7,78,0.20,,---,0.04,VWS V14.01,2013-02-27 05:40:00,
2013-02-27 00:45:00,42.3,35.9,29.80,ENE,68,12.8,12.8,78,0.12,,---,0.04,VWS V14.01,2013-02-27 05:45:00,
2013-02-27 00:50:00,42.4,36.1,29.77,ESE,110,17.9,17.9,78,0.24,,---,0.16,VWS V14.01,2013-02-27 05:50:00,
2013-02-27 00:55:00,42.6,36.2,29.77,North,9,9.6,9.6,78,0.24,,---,0.16,VWS V14.01,2013-02-27 05:55:00,
2013-02-27 01:01:00,42.6,36.6,29.77,ENE,74,12.3,12.3,79,0.16,,---,0.16,VWS V14.01,2013-02-27 06:01:00,
2013-02-27 01:06:00,42.8,36.4,29.77,East,82,13.2,13.2,78,0.16,,---,0.16,VWS V14.01,2013-02-27 06:06:00,
2013-02-27 01:11:00,42.8,36.4,29.77,East,90,12.3,12.3,78,0.16,,---,0.16,VWS V14.01,2013-02-27 06:11:00,
2013-02-27 01:16:00,42.8,36.4,29.77,NE,56,10.5,10.5,78,0.12,,---,0.16,VWS V14.01,2013-02-27 06:16:00,
2013-02-27 01:21:00,42.8,36.8,29.77,NE,56,10.5,10.5,79,0.12,,---,0.16,VWS V14.01,2013-02-27 06:21:00,
2013-02-27 01:26:00,43.0,36.9,29.74,ENE,76,10.5,10.5,79,0.12,,---,0.16,VWS V14.01,2013-02-27 06:26:00,
2013-02-27 01:31:00,43.0,36.9,29.74,East,97,13.2,13.2,79,0.12,,---,0.16,VWS V14.01,2013-02-27 06:31:00,
2013-02-27 01:36:00,43.0,36.9,29.74,NNE,32,8.3,8.3,79,0.12,,---,0.16,VWS V14.01,2013-02-27 06:36:00,
2013-02-27 01:41:00,43.0,36.9,29.74,East,80,8.7,8.7,79,0.12,,---,0.16,VWS V14.01,2013-02-27 06:41:00,
2013-02-27 01:46:00,43.0,36.9,29.74,NNE,20,10.5,10.5,79,0.12,,---,0.16,VWS V14.01,2013-02-27 06:46:00,
2013-02-27 01:51:00,43.2,37.1,29.74,East,87,12.8,12.8,79,0.12,,---,0.16,VWS V14.01,2013-02-27 06:51:00,
2013-02-27 01:56:00,43.2,37.1,29.74,East,100,16.8,16.8,79,0.12,,---,0.16,VWS V14.01,2013-02-27 06:56:00,
2013-02-27 02:01:00,43.2,37.1,29.74,ENE,69,11.0,11.0,79,0.12,,---,0.28,VWS V14.01,2013-02-27 07:01:00,
2013-02-27 02:06:00,43.2,37.1,29.74,ENE,77,8.7,8.7,79,0.12,,---,0.28,VWS V14.01,2013-02-27 07:06:00,
2013-02-27 02:11:00,43.2,37.1,29.74,East,89,8.7,8.7,79,0.12,,---,0.28,VWS V14.01,2013-02-27 07:11:00,
2013-02-27 02:16:00,43.3,37.3,29.68,NE,45,14.1,14.1,79,0.12,,---,0.28,VWS V14.01,2013-02-27 07:16:00,
2013-02-27 02:21:00,43.3,37.3,29.68,NNE,25,12.3,12.3,79,0.12,,---,0.28,VWS V14.01,2013-02-27 07:21:00,
2013-02-27 02:26:00,43.2,37.1,29.68,NNE,18,8.1,8.1,79,0.16,,---,0.31,VWS V14.01,2013-02-27 07:26:00,
2013-02-27 02:31:00,43.2,37.1,29.68,NE,46,7.2,7.2,79,0.16,,---,0.31,VWS V14.01,2013-02-27 07:31:00,
2013-02-27 02:36:00,43.2,37.1,29.65,NNE,30,8.1,8.1,79,0.16,,---,0.31,VWS V14.01,2013-02-27 07:36:00,
2013-02-27 02:41:00,43.3,37.6,29.65,NNE,30,10.5,10.5,80,0.16,,---,0.31,VWS V14.01,2013-02-27 07:41:00,
2013-02-27 02:46:00,43.3,37.6,29.65,NE,55,7.6,7.6,80,0.16,,---,0.31,VWS V14.01,2013-02-27 07:46:00,
2013-02-27 02:51:00,43.5,37.8,29.65,NNE,32,7.2,7.2,80,0.16,,---,0.31,VWS V14.01,2013-02-27 07:51:00,
2013-02-27 02:56:00,43.7,38.0,29.65,East,88,10.5,10.5,80,0.16,,---,0.31,VWS V14.01,2013-02-27 07:56:00,
2013-02-27 03:01:00,43.7,38.0,29.62,ENE,62,11.0,11.0,80,0.04,,---,0.31,VWS V14.01,2013-02-27 08:01:00,
2013-02-27 03:06:00,44.1,38.3,29.62,ENE,71,10.1,10.1,80,0.04,,---,0.31,VWS V14.01,2013-02-27 08:06:00,
2013-02-27 03:11:00,44.1,38.3,29.62,NE,44,5.8,5.8,80,0.04,,---,0.31,VWS V14.01,2013-02-27 08:11:00,
2013-02-27 03:16:00,44.1,38.3,29.62,ENE,57,15.0,15.0,80,0.04,,---,0.31,VWS V14.01,2013-02-27 08:16:00,
2013-02-27 03:21:00,44.2,38.5,29.62,NE,44,10.1,10.1,80,0.04,,---,0.31,VWS V14.01,2013-02-27 08:21:00,
2013-02-27 03:26:00,44.4,38.7,29.62,NNE,24,8.3,8.3,80,0.04,,---,0.31,VWS V14.01,2013-02-27 08:26:00,
2013-02-27 03:31:00,44.6,38.8,29.59,NE,38,12.8,12.8,80,0.00,,---,0.31,VWS V14.01,2013-02-27 08:31:00,
2013-02-27 03:36:00,44.6,38.8,29.59,ENE,67,11.9,11.9,80,0.00,,---,0.31,VWS V14.01,2013-02-27 08:36:00,
2013-02-27 03:41:00,44.6,38.8,29.59,ENE,72,5.8,5.8,80,0.00,,---,0.31,VWS V14.01,2013-02-27 08:41:00,
2013-02-27 03:46:00,44.6,38.8,29.59,East,82,8.7,8.7,80,0.04,,---,0.35,VWS V14.01,2013-02-27 08:46:00,
2013-02-27 03:51:00,44.8,39.0,29.59,East,82,6.3,6.3,80,0.04,,---,0.35,VWS V14.01,2013-02-27 08:51:00,
2013-02-27 03:56:00,44.8,39.0,29.59,East,92,8.3,8.3,80,0.04,,---,0.35,VWS V14.01,2013-02-27 08:56:00,
2013-02-27 04:01:00,45.0,39.2,29.56,ENE,71,3.6,3.6,80,0.04,,---,0.35,VWS V14.01,2013-02-27 09:01:00,
2013-02-27 04:06:00,45.1,39.3,29.56,NE,56,10.5,10.5,80,0.04,,---,0.35,VWS V14.01,2013-02-27 09:06:00,
2013-02-27 04:11:00,45.1,39.3,29.56,NNE,31,5.8,5.8,80,0.04,,---,0.35,VWS V14.01,2013-02-27 09:11:00,
2013-02-27 04:17:00,45.1,39.3,29.56,NE,55,10.5,10.5,80,0.04,,---,0.35,VWS V14.01,2013-02-27 09:17:00,
2013-02-27 04:22:00,45.1,39.3,29.56,NE,42,13.2,13.2,80,0.04,,---,0.35,VWS V14.01,2013-02-27 09:22:00,
2013-02-27 04:27:00,45.1,39.3,29.56,ENE,73,15.0,15.0,80,0.04,,---,0.35,VWS V14.01,2013-02-27 09:27:00,
2013-02-27 04:32:00,45.1,39.3,29.56,East,80,8.3,8.3,80,0.04,,---,0.35,VWS V14.01,2013-02-27 09:32:00,
2013-02-27 04:37:00,45.1,39.3,29.56,East,93,8.1,8.1,80,0.04,,---,0.35,VWS V14.01,2013-02-27 09:37:00,
2013-02-27 04:42:00,45.1,39.3,29.56,North,2,13.2,13.2,80,0.04,,---,0.35,VWS V14.01,2013-02-27 09:42:00,
2013-02-27 04:47:00,45.3,39.5,29.56,NE,42,5.8,5.8,80,0.00,,---,0.35,VWS V14.01,2013-02-27 09:47:00,
2013-02-27 04:52:00,45.3,39.5,29.56,East,96,11.0,11.0,80,0.00,,---,0.35,VWS V14.01,2013-02-27 09:52:00,
2013-02-27 04:57:00,45.5,39.7,29.56,NNE,25,8.7,8.7,80,0.00,,---,0.35,VWS V14.01,2013-02-27 09:57:00,
2013-02-27 05:02:00,45.7,39.9,29.56,NE,42,8.3,8.3,80,0.00,,---,0.35,VWS V14.01,2013-02-27 10:02:00,
2013-02-27 05:07:00,45.5,39.7,29.56,ENE,64,5.4,5.4,80,0.00,,---,0.35,VWS V14.01,2013-02-27 10:07:00,
2013-02-27 05:12:00,45.5,39.7,29.56,NE,53,8.7,8.7,80,0.00,,---,0.35,VWS V14.01,2013-02-27 10:12:00,
2013-02-27 05:17:00,45.7,39.9,29.53,East,80,8.3,8.3,80,0.00,,---,0.35,VWS V14.01,2013-02-27 10:17:00,
2013-02-27 05:22:00,45.5,39.7,29.53,NE,50,10.5,10.5,80,0.00,,---,0.35,VWS V14.01,2013-02-27 10:22:00,
2013-02-27 05:27:00,45.5,39.7,29.53,NE,56,8.3,8.3,80,0.00,,---,0.35,VWS V14.01,2013-02-27 10:27:00,
2013-02-27 05:32:00,45.7,39.9,29.53,ENE,66,9.2,9.2,80,0.00,,---,0.35,VWS V14.01,2013-02-27 10:32:00,
2013-02-27 05:37:00,45.9,40.0,29.53,ENE,60,7.6,7.6,80,0.00,,---,0.35,VWS V14.01,2013-02-27 10:37:00,
2013-02-27 05:42:00,46.0,40.2,29.53,ENE,64,10.1,10.1,80,0.04,,---,0.39,VWS V14.01,2013-02-27 10:42:00,
2013-02-27 05:47:00,46.2,40.4,29.53,ENE,72,10.1,10.1,80,0.04,,---,0.39,VWS V14.01,2013-02-27 10:47:00,
2013-02-27 05:52:00,46.2,40.4,29.53,North,5,4.9,4.9,80,0.04,,---,0.39,VWS V14.01,2013-02-27 10:52:00,
2013-02-27 05:58:00,46.2,40.4,29.53,East,85,5.8,5.8,80,0.04,,---,0.39,VWS V14.01,2013-02-27 10:58:00,
2013-02-27 06:03:00,46.2,40.4,29.50,NNE,23,8.1,8.1,80,0.04,,---,0.39,VWS V14.01,2013-02-27 11:03:00,
2013-02-27 06:08:00,46.2,40.4,29.50,ENE,77,6.7,6.7,80,0.04,,---,0.39,VWS V14.01,2013-02-27 11:08:00,
2013-02-27 06:13:00,46.2,40.4,29.50,ENE,75,6.3,6.3,80,0.04,,---,0.39,VWS V14.01,2013-02-27 11:13:00,
2013-02-27 06:18:00,46.2,40.4,29.50,NE,54,6.3,6.3,80,0.04,,---,0.39,VWS V14.01,2013-02-27 11:18:00,
2013-02-27 06:23:00,46.4,40.6,29.53,NE,34,5.8,5.8,80,0.04,,---,0.39,VWS V14.01,2013-02-27 11:23:00,
2013-02-27 06:28:00,46.4,40.6,29.53,ENE,68,3.6,3.6,80,0.08,,---,0.43,VWS V14.01,2013-02-27 11:28:00,
2013-02-27 06:33:00,46.4,40.6,29.50,NE,54,3.6,3.6,80,0.08,,---,0.43,VWS V14.01,2013-02-27 11:33:00,
2013-02-27 06:38:00,46.6,40.8,29.50,ENE,59,7.6,7.6,80,0.08,,---,0.43,VWS V14.01,2013-02-27 11:38:00,
2013-02-27 06:43:00,46.8,40.9,29.50,ESE,122,2.7,2.7,80,0.08,,---,0.43,VWS V14.01,2013-02-27 11:43:00,
2013-02-27 06:48:00,46.9,41.1,29.50,East,84,5.8,5.8,80,0.04,,---,0.43,VWS V14.01,2013-02-27 11:48:00,
2013-02-27 06:53:00,47.1,41.3,29.50,ENE,67,8.3,8.3,80,0.04,,---,0.43,VWS V14.01,2013-02-27 11:53:00,
2013-02-27 06:58:00,47.3,41.5,29.50,NE,47,10.5,10.5,80,0.04,,---,0.43,VWS V14.01,2013-02-27 11:58:00,
2013-02-27 07:03:00,47.1,41.3,29.50,ENE,70,11.4,11.4,80,0.04,,---,0.43,VWS V14.01,2013-02-27 12:03:00,
2013-02-27 07:08:00,47.1,41.3,29.50,ENE,61,7.2,7.2,80,0.04,,---,0.43,VWS V14.01,2013-02-27 12:08:00,
2013-02-27 07:13:00,47.1,41.3,29.47,NE,39,5.8,5.8,80,0.04,,---,0.43,VWS V14.01,2013-02-27 12:13:00,
2013-02-27 07:18:00,47.1,41.3,29.47,ENE,74,6.3,6.3,80,0.04,,---,0.43,VWS V14.01,2013-02-27 12:18:00,
2013-02-27 07:23:00,47.1,41.3,29.47,East,96,10.5,10.5,80,0.04,,---,0.43,VWS V14.01,2013-02-27 12:23:00,
2013-02-27 07:28:00,47.1,41.3,29.47,ENE,57,7.6,7.6,80,0.04,,---,0.43,VWS V14.01,2013-02-27 12:28:00,
2013-02-27 07:33:00,46.9,41.1,29.47,East,85,5.4,5.4,80,0.00,,---,0.43,VWS V14.01,2013-02-27 12:33:00,
2013-02-27 07:38:00,46.9,41.1,29.47,East,92,8.1,8.1,80,0.00,,---,0.43,VWS V14.01,2013-02-27 12:38:00,
2013-02-27 07:43:00,46.9,41.1,29.47,ENE,73,8.7,8.7,80,0.00,,---,0.43,VWS V14.01,2013-02-27 12:43:00,
2013-02-27 07:48:00,46.9,41.1,29.47,NNE,25,5.8,5.8,80,0.00,,---,0.43,VWS V14.01,2013-02-27 12:48:00,
2013-02-27 07:53:00,46.9,41.1,29.47,ESE,103,4.0,4.0,80,0.00,,---,0.43,VWS V14.01,2013-02-27 12:53:00,
2013-02-27 07:58:00,47.1,41.3,29.47,ENE,66,5.8,5.8,80,0.00,,---,0.43,VWS V14.01,2013-02-27 12:58:00,
2013-02-27 08:04:00,47.1,41.3,29.47,NE,43,5.8,5.8,80,0.00,,---,0.43,VWS V14.01,2013-02-27 13:04:00,
2013-02-27 08:09:00,47.1,41.3,29.47,ENE,73,8.1,8.1,80,0.00,,---,0.43,VWS V14.01,2013-02-27 13:09:00,
2013-02-27 08:14:00,47.1,41.3,29.47,ESE,118,6.3,6.3,80,0.00,,---,0.43,VWS V14.01,2013-02-27 13:14:00,
2013-02-27 08:19:00,47.1,41.3,29.47,NE,56,5.8,5.8,80,0.00,,---,0.43,VWS V14.01,2013-02-27 13:19:00,
2013-02-27 08:24:00,47.3,41.5,29.47,East,80,5.4,5.4,80,0.00,,---,0.43,VWS V14.01,2013-02-27 13:24:00,
2013-02-27 08:29:00,47.3,41.5,29.47,NNE,33,4.9,4.9,80,0.00,,---,0.43,VWS V14.01,2013-02-27 13:29:00,
2013-02-27 08:34:00,47.5,41.6,29.47,East,95,3.6,3.6,80,0.00,,---,0.43,VWS V14.01,2013-02-27 13:34:00,
2013-02-27 08:39:00,47.7,41.8,29.47,NE,44,5.4,5.4,80,0.00,,---,0.43,VWS V14.01,2013-02-27 13:39:00,
2013-02-27 08:44:00,47.7,41.8,29.47,ENE,69,5.4,5.4,80,0.00,,---,0.43,VWS V14.01,2013-02-27 13:44:00,
2013-02-27 08:49:00,47.7,41.8,29.47,ENE,72,8.7,8.7,80,0.00,,---,0.43,VWS V14.01,2013-02-27 13:49:00,
2013-02-27 08:54:00,47.7,41.8,29.47,East,87,4.0,4.0,80,0.00,,---,0.43,VWS V14.01,2013-02-27 13:54:00,
2013-02-27 08:59:00,47.7,41.8,29.47,ENE,58,3.1,3.1,80,0.00,,---,0.43,VWS V14.01,2013-02-27 13:59:00,
2013-02-27 09:04:00,47.8,42.0,29.47,ENE,70,4.9,4.9,80,0.00,,---,0.43,VWS V14.01,2013-02-27 14:04:00,
2013-02-27 09:09:00,47.7,41.8,29.47,ENE,69,6.3,6.3,80,0.00,,---,0.43,VWS V14.01,2013-02-27 14:09:00,
2013-02-27 09:14:00,47.8,42.0,29.47,ENE,74,4.0,4.0,80,0.00,,---,0.43,VWS V14.01,2013-02-27 14:14:00,
2013-02-27 09:19:00,47.8,42.0,29.47,ENE,73,3.6,3.6,80,0.00,,---,0.43,VWS V14.01,2013-02-27 14:19:00,
2013-02-27 09:24:00,48.0,42.2,29.47,ENE,59,2.7,2.7,80,0.00,,---,0.43,VWS V14.01,2013-02-27 14:24:00,
2013-02-27 09:29:00,48.2,42.0,29.47,ENE,69,4.0,4.0,79,0.00,,---,0.43,VWS V14.01,2013-02-27 14:29:00,
2013-02-27 09:34:00,48.2,42.0,29.47,NE,55,0.0,0.0,79,0.00,,---,0.43,VWS V14.01,2013-02-27 14:34:00,
2013-02-27 09:39:00,48.7,42.9,29.47,ESE,104,0.0,0.0,80,0.00,,---,0.43,VWS V14.01,2013-02-27 14:39:00,
2013-02-27 09:44:00,49.3,43.4,29.47,East,79,0.0,0.0,80,0.00,,---,0.43,VWS V14.01,2013-02-27 14:44:00,
2013-02-27 09:49:00,50.0,43.8,29.47,NE,34,0.0,0.0,79,0.00,,---,0.43,VWS V14.01,2013-02-27 14:49:00,
2013-02-27 09:54:00,50.7,44.5,29.47,NE,34,0.0,0.0,79,0.00,,---,0.43,VWS V14.01,2013-02-27 14:54:00,
2013-02-27 09:59:00,50.9,44.6,29.47,SE,142,0.0,0.0,79,0.00,,---,0.43,VWS V14.01,2013-02-27 14:59:00,
2013-02-27 10:04:00,51.3,45.0,29.47,SE,142,0.0,0.0,79,0.00,,---,0.43,VWS V14.01,2013-02-27 15:04:00,
2013-02-27 10:09:00,51.6,45.3,29.47,SE,142,0.0,0.0,79,0.00,,---,0.43,VWS V14.01,2013-02-27 15:09:00,
2013-02-27 10:14:00,52.0,45.7,29.47,SE,142,0.0,0.0,79,0.00,,---,0.43,VWS V14.01,2013-02-27 15:14:00,
2013-02-27 10:19:00,52.3,46.0,29.47,SE,142,0.0,0.0,79,0.00,,---,0.43,VWS V14.01,2013-02-27 15:19:00,
2013-02-27 10:24:00,52.9,46.5,29.47,SE,142,0.0,0.0,79,0.00,,---,0.43,VWS V14.01,2013-02-27 15:24:00,
2013-02-27 10:29:00,53.6,47.3,29.47,SSE,164,0.0,0.0,79,0.00,,---,0.43,VWS V14.01,2013-02-27 15:29:00,
2013-02-27 10:34:00,53.6,47.3,29.47,SW,221,0.0,0.0,79,0.00,,---,0.43,VWS V14.01,2013-02-27 15:34:00,
2013-02-27 10:39:00,54.0,47.6,29.47,SW,221,4.0,4.0,79,0.00,,---,0.43,VWS V14.01,2013-02-27 15:39:00,
2013-02-27 10:44:00,54.0,47.6,29.47,SW,218,2.7,2.7,79,0.00,,---,0.43,VWS V14.01,2013-02-27 15:44:00,
2013-02-27 10:49:00,54.3,47.6,29.47,West,270,3.1,3.1,78,0.00,,---,0.43,VWS V14.01,2013-02-27 15:49:00,
2013-02-27 10:54:00,54.5,48.1,29.44,West,265,3.1,3.1,79,0.00,,---,0.43,VWS V14.01,2013-02-27 15:54:00,
2013-02-27 10:59:00,55.2,48.5,29.44,WSW,247,4.0,4.0,78,0.00,,---,0.43,VWS V14.01,2013-02-27 15:59:00,
2013-02-27 11:04:00,55.2,48.8,29.47,WSW,244,4.9,4.9,79,0.00,,---,0.43,VWS V14.01,2013-02-27 16:04:00,
2013-02-27 11:09:00,54.7,48.3,29.47,SW,219,4.0,4.0,79,0.00,,---,0.43,VWS V14.01,2013-02-27 16:09:00,
2013-02-27 11:14:00,54.5,48.1,29.47,South,191,2.7,2.7,79,0.00,,---,0.43,VWS V14.01,2013-02-27 16:14:00,
2013-02-27 11:19:00,54.5,47.8,29.47,SW,222,3.1,3.1,78,0.00,,---,0.43,VWS V14.01,2013-02-27 16:19:00,
2013-02-27 11:24:00,55.0,48.7,29.47,South,181,3.6,3.6,79,0.00,,---,0.43,VWS V14.01,2013-02-27 16:24:00,
2013-02-27 11:29:00,55.6,48.8,29.47,SW,230,5.8,5.8,78,0.00,,---,0.43,VWS V14.01,2013-02-27 16:29:00,
2013-02-27 11:34:00,55.6,48.8,29.47,SW,236,7.6,7.6,78,0.00,,---,0.43,VWS V14.01,2013-02-27 16:34:00,
2013-02-27 11:39:00,56.3,49.5,29.47,WSW,258,11.4,11.4,78,0.00,,---,0.43,VWS V14.01,2013-02-27 16:39:00,
2013-02-27 11:44:00,56.3,49.5,29.47,SSW,200,5.8,5.8,78,0.00,,---,0.43,VWS V14.01,2013-02-27 16:44:00,
2013-02-27 11:50:00,57.4,50.6,29.47,SW,227,5.4,5.4,78,0.00,,---,0.43,VWS V14.01,2013-02-27 16:50:00,
2013-02-27 11:55:00,57.2,50.4,29.47,SSW,210,12.3,12.3,78,0.00,,---,0.43,VWS V14.01,2013-02-27 16:55:00,
2013-02-27 12:00:00,56.8,50.1,29.47,SW,229,8.7,8.7,78,0.00,,---,0.43,VWS V14.01,2013-02-27 17:00:00,
2013-02-27 12:05:00,57.0,50.2,29.44,SW,220,10.1,10.1,78,0.00,,---,0.43,VWS V14.01,2013-02-27 17:05:00,
2013-02-27 12:10:00,57.0,49.9,29.44,SSW,193,13.2,13.2,77,0.00,,---,0.43,VWS V14.01,2013-02-27 17:10:00,
2013-02-27 12:15:00,56.3,48.1,29.44,SSW,205,11.0,11.0,74,0.00,,---,0.43,VWS V14.01,2013-02-27 17:15:00,
2013-02-27 12:20:00,56.5,47.2,29.44,SSW,206,5.4,5.4,71,0.00,,---,0.43,VWS V14.01,2013-02-27 17:20:00,
2013-02-27 12:25:00,56.5,46.8,29.44,SSW,199,10.5,10.5,70,0.00,,---,0.43,VWS V14.01,2013-02-27 17:25:00,
2013-02-27 12:30:00,56.3,46.3,29.44,SW,228,6.3,6.3,69,0.00,,---,0.43,VWS V14.01,2013-02-27 17:30:00,
2013-02-27 12:35:00,55.4,42.2,29.44,WSW,248,5.4,5.4,61,0.00,,---,0.43,VWS V14.01,2013-02-27 17:35:00,
2013-02-27 12:40:00,54.7,41.5,29.44,SSW,192,13.2,13.2,61,0.00,,---,0.43,VWS V14.01,2013-02-27 17:40:00,
2013-02-27 12:45:00,54.1,41.4,29.44,SW,214,10.5,10.5,62,0.00,,---,0.43,VWS V14.01,2013-02-27 17:45:00,
2013-02-27 12:50:00,53.8,41.1,29.44,SSW,210,13.2,13.2,62,0.00,,---,0.43,VWS V14.01,2013-02-27 17:50:00,
2013-02-27 12:55:00,53.4,41.2,29.44,SSW,212,8.1,8.1,63,0.00,,---,0.43,VWS V14.01,2013-02-27 17:55:00,
2013-02-27 13:00:00,52.9,40.6,29.44,SW,225,7.6,7.6,63,0.00,,---,0.43,VWS V14.01,2013-02-27 18:00:00,
2013-02-27 13:05:00,52.7,40.9,29.44,SW,215,8.7,8.7,64,0.00,,---,0.43,VWS V14.01,2013-02-27 18:05:00,
2013-02-27 13:10:00,52.5,40.7,29.47,SSW,200,7.6,7.6,64,0.00,,---,0.43,VWS V14.01,2013-02-27 18:10:00,
2013-02-27 13:15:00,52.3,40.5,29.47,WSW,251,11.0,11.0,64,0.00,,---,0.43,VWS V14.01,2013-02-27 18:15:00,
2013-02-27 13:20:00,52.3,40.1,29.47,SW,220,8.7,8.7,63,0.00,,---,0.43,VWS V14.01,2013-02-27 18:20:00,
2013-02-27 13:25:00,52.2,38.7,29.47,SW,228,4.0,4.0,60,0.00,,---,0.43,VWS V14.01,2013-02-27 18:25:00,
2013-02-27 13:30:00,52.0,37.7,29.47,SW,222,11.0,11.0,58,0.00,,---,0.43,VWS V14.01,2013-02-27 18:30:00,
2013-02-27 13:35:00,51.8,37.1,29.47,SSW,206,4.0,4.0,57,0.00,,---,0.43,VWS V14.01,2013-02-27 18:35:00,
2013-02-27 13:40:00,51.6,37.3,29.47,WSW,254,14.1,14.1,58,0.00,,---,0.43,VWS V14.01,2013-02-27 18:40:00,
2013-02-27 13:45:00,51.6,37.8,29.47,West,278,8.7,8.7,59,0.00,,---,0.43,VWS V14.01,2013-02-27 18:45:00,
2013-02-27 13:50:00,51.8,37.5,29.47,SW,236,11.0,11.0,58,0.00,,---,0.43,VWS V14.01,2013-02-27 18:50:00,
2013-02-27 13:55:00,52.3,38.0,29.47,SW,215,5.8,5.8,58,0.00,,---,0.43,VWS V14.01,2013-02-27 18:55:00,
2013-02-27 14:00:00,52.3,36.2,29.47,WSW,247,10.5,10.5,54,0.00,,---,0.43,VWS V14.01,2013-02-27 19:00:00,
2013-02-27 14:05:00,52.5,35.9,29.47,SSW,211,8.7,8.7,53,0.00,,---,0.43,VWS V14.01,2013-02-27 19:05:00,
2013-02-27 14:10:00,53.1,35.4,29.47,WSW,241,8.7,8.7,51,0.00,,---,0.43,VWS V14.01,2013-02-27 19:10:00,
2013-02-27 14:15:00,53.1,33.9,29.47,WSW,242,21.0,21.0,48,0.00,,---,0.43,VWS V14.01,2013-02-27 19:15:00,
2013-02-27 14:20:00,52.7,33.0,29.47,SSW,204,12.3,12.3,47,0.00,,---,0.43,VWS V14.01,2013-02-27 19:20:00,
2013-02-27 14:25:00,52.5,32.9,29.47,West,266,15.4,15.4,47,0.00,,---,0.43,VWS V14.01,2013-02-27 19:25:00,
2013-02-27 14:30:00,52.3,33.2,29.50,West,278,8.7,8.7,48,0.00,,---,0.43,VWS V14.01,2013-02-27 19:30:00,
2013-02-27 14:35:00,52.2,32.6,29.50,West,264,11.0,11.0,47,0.00,,---,0.43,VWS V14.01,2013-02-27 19:35:00,
2013-02-27 14:40:00,52.2,32.6,29.50,West,271,10.5,10.5,47,0.00,,---,0.43,VWS V14.01,2013-02-27 19:40:00,
2013-02-27 14:45:00,52.0,31.3,29.50,South,183,4.0,4.0,45,0.00,,---,0.43,VWS V14.01,2013-02-27 19:45:00,
2013-02-27 14:50:00,52.2,32.6,29.50,WSW,244,6.3,6.3,47,0.00,,---,0.43,VWS V14.01,2013-02-27 19:50:00,
2013-02-27 14:55:00,52.3,31.1,29.50,WNW,287,13.2,13.2,44,0.00,,---,0.43,VWS V14.01,2013-02-27 19:55:00,
2013-02-27 15:00:00,52.5,31.8,29.50,WSW,244,6.3,6.3,45,0.00,,---,0.43,VWS V14.01,2013-02-27 20:00:00,
2013-02-27 15:05:00,52.3,30.0,29.50,WNW,284,8.7,8.7,42,0.00,,---,0.43,VWS V14.01,2013-02-27 20:05:00,
2013-02-27 15:11:00,52.2,29.8,29.50,WSW,257,10.1,10.1,42,0.00,,---,0.43,VWS V14.01,2013-02-27 20:11:00,
2013-02-27 15:16:00,52.0,29.6,29.50,West,276,11.9,11.9,42,0.00,,---,0.43,VWS V14.01,2013-02-27 20:16:00,
2013-02-27 15:21:00,51.6,29.3,29.50,West,273,4.9,4.9,42,0.00,,---,0.43,VWS V14.01,2013-02-27 20:21:00,
2013-02-27 15:26:00,51.6,29.3,29.50,West,276,14.5,14.5,42,0.00,,---,0.43,VWS V14.01,2013-02-27 20:26:00,
2013-02-27 15:31:00,52.0,29.6,29.50,West,262,8.3,8.3,42,0.00,,---,0.43,VWS V14.01,2013-02-27 20:31:00,
2013-02-27 15:36:00,52.3,28.8,29.50,West,270,11.0,11.0,40,0.00,,---,0.43,VWS V14.01,2013-02-27 20:36:00,
2013-02-27 15:41:00,52.5,27.7,29.50,SSW,211,10.5,10.5,38,0.00,,---,0.43,VWS V14.01,2013-02-27 20:41:00,
2013-02-27 15:46:00,52.7,27.8,29.50,WSW,244,15.0,15.0,38,0.00,,---,0.43,VWS V14.01,2013-02-27 20:46:00,
2013-02-27 15:51:00,52.5,27.0,29.50,SW,230,8.1,8.1,37,0.00,,---,0.43,VWS V14.01,2013-02-27 20:51:00,
2013-02-27 15:56:00,52.0,26.5,29.53,WSW,247,10.1,10.1,37,0.00,,---,0.43,VWS V14.01,2013-02-27 20:56:00,
2013-02-27 16:01:00,51.6,26.2,29.53,SSW,212,9.6,9.6,37,0.00,,---,0.43,VWS V14.01,2013-02-27 21:01:00,
2013-02-27 16:06:00,51.1,26.4,29.53,WSW,250,14.5,14.5,38,0.00,,---,0.43,VWS V14.01,2013-02-27 21:06:00,
2013-02-27 16:11:00,50.9,26.2,29.53,WNW,284,10.1,10.1,38,0.00,,---,0.43,VWS V14.01,2013-02-27 21:11:00,
2013-02-27 16:16:00,50.5,25.9,29.53,WNW,285,4.0,4.0,38,0.00,,---,0.43,VWS V14.01,2013-02-27 21:16:00,
2013-02-27 16:21:00,50.4,25.7,29.53,SW,235,8.7,8.7,38,0.00,,---,0.43,VWS V14.01,2013-02-27 21:21:00,
2013-02-27 16:26:00,50.2,25.6,29.53,WSW,257,8.3,8.3,38,0.00,,---,0.43,VWS V14.01,2013-02-27 21:26:00,
2013-02-27 16:31:00,50.2,25.6,29.53,West,259,8.7,8.7,38,0.00,,---,0.43,VWS V14.01,2013-02-27 21:31:00,
2013-02-27 16:36:00,50.0,24.8,29.53,WNW,287,13.2,13.2,37,0.00,,---,0.43,VWS V14.01,2013-02-27 21:36:00,
2013-02-27 16:41:00,49.8,24.6,29.53,WSW,253,20.6,20.6,37,0.00,,---,0.43,VWS V14.01,2013-02-27 21:41:00,
2013-02-27 16:46:00,49.5,24.3,29.56,WNW,302,15.9,15.9,37,0.00,,---,0.43,VWS V14.01,2013-02-27 21:46:00,
2013-02-27 16:51:00,49.5,24.3,29.56,WSW,253,8.7,8.7,37,0.00,,---,0.43,VWS V14.01,2013-02-27 21:51:00,
2013-02-27 16:56:00,49.3,24.1,29.56,West,260,8.7,8.7,37,0.00,,---,0.43,VWS V14.01,2013-02-27 21:56:00,
2013-02-27 17:01:00,49.1,24.0,29.56,NNW,333,14.5,14.5,37,0.00,,---,0.43,VWS V14.01,2013-02-27 22:01:00,
2013-02-27 17:06:00,48.9,23.8,29.56,WSW,256,5.8,5.8,37,0.00,,---,0.43,VWS V14.01,2013-02-27 22:06:00,
2013-02-27 17:11:00,48.7,23.6,29.56,SW,235,4.9,4.9,37,0.00,,---,0.43,VWS V14.01,2013-02-27 22:11:00,
2013-02-27 17:16:00,48.7,23.6,29.56,SSW,198,5.4,5.4,37,0.00,,---,0.43,VWS V14.01,2013-02-27 22:16:00,
2013-02-27 17:21:00,48.6,23.5,29.56,West,279,7.6,7.6,37,0.00,,---,0.43,VWS V14.01,2013-02-27 22:21:00,
2013-02-27 17:26:00,48.2,23.8,29.56,West,259,7.6,7.6,38,0.00,,---,0.43,VWS V14.01,2013-02-27 22:26:00,
2013-02-27 17:31:00,47.8,23.5,29.56,WSW,250,5.8,5.8,38,0.00,,---,0.43,VWS V14.01,2013-02-27 22:31:00,
2013-02-27 17:36:00,47.7,23.9,29.56,WNW,291,4.0,4.0,39,0.00,,---,0.43,VWS V14.01,2013-02-27 22:36:00,
2013-02-27 17:41:00,47.7,23.9,29.56,WSW,257,4.0,4.0,39,0.00,,---,0.43,VWS V14.01,2013-02-27 22:41:00,
2013-02-27 17:46:00,47.5,24.4,29.56,SW,228,6.3,6.3,40,0.00,,---,0.43,VWS V14.01,2013-02-27 22:46:00,
2013-02-27 17:51:00,47.5,24.4,29.59,SW,217,4.9,4.9,40,0.00,,---,0.43,VWS V14.01,2013-02-27 22:51:00,
2013-02-27 17:56:00,47.5,24.4,29.59,SW,232,6.7,6.7,40,0.00,,---,0.43,VWS V14.01,2013-02-27 22:56:00,
2013-02-27 18:01:00,47.1,24.1,29.59,WNW,292,2.7,2.7,40,0.00,,---,0.43,VWS V14.01,2013-02-27 23:01:00,
2013-02-27 18:06:00,46.9,23.9,29.59,West,270,2.7,2.7,40,0.00,,---,0.43,VWS V14.01,2013-02-27 23:06:00,
2013-02-27 18:11:00,46.4,24.0,29.59,SW,225,2.2,2.2,41,0.00,,---,0.43,VWS V14.01,2013-02-27 23:11:00,
2013-02-27 18:16:00,46.0,24.2,29.59,West,264,2.7,2.7,42,0.00,,---,0.43,VWS V14.01,2013-02-27 23:16:00,
2013-02-27 18:21:00,45.7,24.5,29.59,SW,225,5.4,5.4,43,0.00,,---,0.43,VWS V14.01,2013-02-27 23:21:00,
2013-02-27 18:26:00,45.5,24.9,29.59,WSW,255,3.6,3.6,44,0.00,,---,0.43,VWS V14.01,2013-02-27 23:26:00,
2013-02-27 18:31:00,45.5,25.4,29.59,SSW,198,4.0,4.0,45,0.00,,---,0.43,VWS V14.01,2013-02-27 23:31:00,
2013-02-27 18:36:00,45.5,25.4,29.59,SW,235,4.9,4.9,45,0.00,,---,0.43,VWS V14.01,2013-02-27 23:36:00,
2013-02-27 18:41:00,45.7,26.1,29.59,WSW,238,3.1,3.1,46,0.00,,---,0.43,VWS V14.01,2013-02-27 23:41:00,
2013-02-27 18:46:00,45.7,26.1,29.59,SW,236,3.6,3.6,46,0.00,,---,0.43,VWS V14.01,2013-02-27 23:46:00,
2013-02-27 18:51:00,45.9,26.3,29.59,SSW,206,2.7,2.7,46,0.00,,---,0.43,VWS V14.01,2013-02-27 23:51:00,
2013-02-27 18:56:00,45.9,26.8,29.59,SW,218,2.2,2.2,47,0.00,,---,0.43,VWS V14.01,2013-02-27 23:56:00,
2013-02-27 19:01:00,45.9,26.8,29.59,SW,223,0.0,0.0,47,0.00,,---,0.43,VWS V14.01,2013-02-28 00:01:00,
2013-02-27 19:06:00,45.5,26.5,29.59,SW,223,0.0,0.0,47,0.00,,---,0.43,VWS V14.01,2013-02-28 00:06:00,
2013-02-27 19:11:00,45.0,26.0,29.59,SW,231,0.0,0.0,47,0.00,,---,0.43,VWS V14.01,2013-02-28 00:11:00,
2013-02-27 19:17:00,44.8,25.8,29.62,SW,231,0.0,0.0,47,0.00,,---,0.43,VWS V14.01,2013-02-28 00:17:00,
2013-02-27 19:21:00,44.4,26.0,29.62,SW,231,0.0,0.0,48,0.00,,---,0.43,VWS V14.01,2013-02-28 00:21:00,
2013-02-27 19:27:00,44.2,25.8,29.62,SW,231,0.0,0.0,48,0.00,,---,0.43,VWS V14.01,2013-02-28 00:27:00,
2013-02-27 19:31:00,44.1,26.1,29.62,SW,231,0.0,0.0,49,0.00,,---,0.43,VWS V14.01,2013-02-28 00:31:00,
2013-02-27 19:36:00,43.3,25.5,29.62,SW,231,0.0,0.0,49,0.00,,---,0.43,VWS V14.01,2013-02-28 00:36:00,
2013-02-27 19:42:00,43.0,25.1,29.62,SW,231,0.0,0.0,49,0.00,,---,0.43,VWS V14.01,2013-02-28 00:42:00,
2013-02-27 19:47:00,42.4,25.1,29.59,SW,231,0.0,0.0,50,0.00,,---,0.43,VWS V14.01,2013-02-28 00:47:00,
2013-02-27 19:52:00,41.9,24.6,29.59,SW,231,0.0,0.0,50,0.00,,---,0.43,VWS V14.01,2013-02-28 00:52:00,
2013-02-27 19:57:00,41.5,24.3,29.62,SW,231,0.0,0.0,50,0.00,,---,0.43,VWS V14.01,2013-02-28 00:57:00,
2013-02-27 20:02:00,41.0,24.3,29.62,SW,231,0.0,0.0,51,0.00,,---,0.43,VWS V14.01,2013-02-28 01:02:00,
2013-02-27 20:07:00,40.6,24.4,29.62,SW,231,0.0,0.0,52,0.00,,---,0.43,VWS V14.01,2013-02-28 01:07:00,
2013-02-27 20:12:00,40.5,24.2,29.62,SW,231,0.0,0.0,52,0.00,,---,0.43,VWS V14.01,2013-02-28 01:12:00,
2013-02-27 20:17:00,40.5,24.7,29.62,SW,231,0.0,0.0,53,0.00,,---,0.43,VWS V14.01,2013-02-28 01:17:00,
2013-02-27 20:22:00,40.6,25.3,29.62,SW,231,0.0,0.0,54,0.00,,---,0.43,VWS V14.01,2013-02-28 01:22:00,
2013-02-27 20:27:00,40.8,25.5,29.62,SW,231,0.0,0.0,54,0.00,,---,0.43,VWS V14.01,2013-02-28 01:27:00,
2013-02-27 20:32:00,41.0,26.1,29.62,SW,231,0.0,0.0,55,0.00,,---,0.43,VWS V14.01,2013-02-28 01:32:00,
2013-02-27 20:37:00,41.2,26.2,29.62,SW,231,0.0,0.0,55,0.00,,---,0.43,VWS V14.01,2013-02-28 01:37:00,
2013-02-27 20:42:00,41.4,26.9,29.62,SW,231,0.0,0.0,56,0.00,,---,0.43,VWS V14.01,2013-02-28 01:42:00,
2013-02-27 20:47:00,41.5,27.0,29.62,SW,231,0.0,0.0,56,0.00,,---,0.43,VWS V14.01,2013-02-28 01:47:00,
2013-02-27 20:52:00,41.7,27.6,29.62,SW,231,0.0,0.0,57,0.00,,---,0.43,VWS V14.01,2013-02-28 01:52:00,
2013-02-27 20:57:00,41.7,27.6,29.62,SW,231,0.0,0.0,57,0.00,,---,0.43,VWS V14.01,2013-02-28 01:57:00,
2013-02-27 21:02:00,41.9,28.2,29.62,SW,231,0.0,0.0,58,0.00,,---,0.43,VWS V14.01,2013-02-28 02:02:00,
2013-02-27 21:07:00,42.1,28.4,29.62,SW,231,0.0,0.0,58,0.00,,---,0.43,VWS V14.01,2013-02-28 02:07:00,
2013-02-27 21:12:00,42.1,28.8,29.62,SW,231,0.0,0.0,59,0.00,,---,0.43,VWS V14.01,2013-02-28 02:12:00,
2013-02-27 21:17:00,42.1,28.8,29.62,SW,231,0.0,0.0,59,0.00,,---,0.43,VWS V14.01,2013-02-28 02:17:00,
2013-02-27 21:22:00,42.3,29.4,29.62,SW,231,0.0,0.0,60,0.00,,---,0.43,VWS V14.01,2013-02-28 02:22:00,
2013-02-27 21:27:00,42.3,29.4,29.62,SW,231,0.0,0.0,60,0.00,,---,0.43,VWS V14.01,2013-02-28 02:27:00,
2013-02-27 21:32:00,42.4,30.0,29.62,SW,231,0.0,0.0,61,0.00,,---,0.43,VWS V14.01,2013-02-28 02:32:00,
2013-02-27 21:37:00,42.6,30.1,29.62,SW,231,0.0,0.0,61,0.00,,---,0.43,VWS V14.01,2013-02-28 02:37:00,
2013-02-27 21:42:00,42.6,30.1,29.62,SW,231,0.0,0.0,61,0.00,,---,0.43,VWS V14.01,2013-02-28 02:42:00,
2013-02-27 21:47:00,42.8,30.3,29.62,SW,231,0.0,0.0,61,0.00,,---,0.43,VWS V14.01,2013-02-28 02:47:00,
2013-02-27 21:52:00,42.8,30.3,29.62,SW,231,0.0,0.0,61,0.00,,---,0.43,VWS V14.01,2013-02-28 02:52:00,
2013-02-27 21:57:00,42.8,30.3,29.62,SW,223,0.0,0.0,61,0.00,,---,0.43,VWS V14.01,2013-02-28 02:57:00,
2013-02-27 22:02:00,43.0,30.5,29.62,SW,223,0.0,0.0,61,0.00,,---,0.43,VWS V14.01,2013-02-28 03:02:00,
2013-02-27 22:07:00,43.0,30.5,29.62,SW,223,0.0,0.0,61,0.00,,---,0.43,VWS V14.01,2013-02-28 03:07:00,
2013-02-27 22:12:00,43.0,30.5,29.62,SW,223,0.0,0.0,61,0.00,,---,0.43,VWS V14.01,2013-02-28 03:12:00,
2013-02-27 22:17:00,43.0,30.5,29.62,SW,223,0.0,0.0,61,0.00,,---,0.43,VWS V14.01,2013-02-28 03:17:00,
2013-02-27 22:22:00,43.0,30.5,29.62,SW,223,0.0,0.0,61,0.00,,---,0.43,VWS V14.01,2013-02-28 03:22:00,
2013-02-27 22:27:00,42.8,30.3,29.62,SW,223,0.0,0.0,61,0.00,,---,0.43,VWS V14.01,2013-02-28 03:27:00,
2013-02-27 22:32:00,42.8,30.3,29.62,SW,223,0.0,0.0,61,0.00,,---,0.43,VWS V14.01,2013-02-28 03:32:00,
2013-02-27 22:37:00,42.8,30.3,29.62,SW,223,0.0,0.0,61,0.00,,---,0.43,VWS V14.01,2013-02-28 03:37:00,
2013-02-27 22:42:00,42.8,30.3,29.62,SW,223,0.0,0.0,61,0.00,,---,0.43,VWS V14.01,2013-02-28 03:42:00,
2013-02-27 22:47:00,42.8,30.3,29.62,SW,223,0.0,0.0,61,0.00,,---,0.43,VWS V14.01,2013-02-28 03:47:00,
2013-02-27 22:52:00,42.6,30.5,29.62,SW,223,0.0,0.0,62,0.00,,---,0.43,VWS V14.01,2013-02-28 03:52:00,
2013-02-27 22:57:00,42.6,30.5,29.62,SW,223,0.0,0.0,62,0.00,,---,0.43,VWS V14.01,2013-02-28 03:57:00,
2013-02-27 23:02:00,42.4,30.4,29.62,SW,223,0.0,0.0,62,0.00,,---,0.43,VWS V14.01,2013-02-28 04:02:00,
2013-02-27 23:07:00,42.6,30.5,29.62,SW,223,0.0,0.0,62,0.00,,---,0.43,VWS V14.01,2013-02-28 04:07:00,
2013-02-27 23:12:00,42.4,30.4,29.59,SW,223,0.0,0.0,62,0.00,,---,0.43,VWS V14.01,2013-02-28 04:12:00,
2013-02-27 23:17:00,42.4,30.4,29.59,SW,223,0.0,0.0,62,0.00,,---,0.43,VWS V14.01,2013-02-28 04:17:00,
2013-02-27 23:22:00,42.4,30.8,29.59,SW,223,0.0,0.0,63,0.00,,---,0.43,VWS V14.01,2013-02-28 04:22:00,
2013-02-27 23:27:00,42.4,30.8,29.59,SW,223,0.0,0.0,63,0.00,,---,0.43,VWS V14.01,2013-02-28 04:27:00,
2013-02-27 23:32:00,42.4,30.8,29.59,SW,223,0.0,0.0,63,0.00,,---,0.43,VWS V14.01,2013-02-28 04:32:00,
2013-02-27 23:37:00,42.4,30.8,29.59,SW,223,0.0,0.0,63,0.00,,---,0.43,VWS V14.01,2013-02-28 04:37:00,
2013-02-27 23:42:00,42.4,30.8,29.59,SW,223,0.0,0.0,63,0.00,,---,0.43,VWS V14.01,2013-02-28 04:42:00,
2013-02-27 23:47:00,42.3,30.6,29.59,SW,223,0.0,0.0,63,0.00,,---,0.43,VWS V14.01,2013-02-28 04:47:00,
2013-02-27 23:52:00,42.3,31.0,29.59,SW,223,0.0,0.0,64,0.00,,---,0.43,VWS V14.01,2013-02-28 04:52:00,
2013-02-27 23:57:00,42.3,31.0,29.59,SW,223,0.0,0.0,64,0.00,,---,0.43,VWS V14.01,2013-02-28 04:57:00,